www.pogodaiklimat.ru

Погода и климат >> Архив погоды >> Россия >> Свердловская область >> Верхотурье


ПОГОДА в Верхотурье

  • Прогноз погоды в Верхотурье
  • Монитор погоды в Верхотурье

АРХИВ ПОГОДЫ в Верхотурье

Время (UTC), дата Ветер
(напр.,м/с)
 
Видим.   Явления Облачность Т
(С)
Тd
(С)
f
(%)
Тe
(С)
Тes
(С)
Комфортность P
(гПа)
Po
(гПа)
Тmin
(С)
Tmax
(С)
R
(мм)
R24
(мм)
S
(см)
21 17.05 З 1 20 км 3/1 600 м
[Sc Ci fib]
-0.6 -3.4 81 -3 -3 1006.5 990.8
00 18.05 В 1 50 км 6/3 600 м
[Sc Ac trans Ci fib]
-2.3 -3.3 93 -5 -5 1004.5 988.7
03 18.05 Ю 1 20 км слаб. ливневой дождь 10/9 300 м
[Cb calv Ac As]
+3.0 +0.5 84 +1 +2 1002.5 987.1 -2.8
06 18.05 СЗ 2 50 км {ливн. осадки} 9/9 300 м
[Cb calv]
+6.4 +0.7 67 +4 +6 1001.2 986.0
09 18.05 З 3 50 км {ливн. осадки} 9/8 300 м
[Cb calv Ac trans]
+9.2 -3.5 41 +7 +9 1000.4 985.4
12 18.05 С 1 50 км в посл. час ливневой дождь 9/6 300 м
[Cb calv Ac trans Ci]
+8.3 -0.5 54 +8 +10 1000.7 985.6
15 18.05 С 2 50 км 9/8 300 м
[Cb calv Ac und Ci fib]
+7.7 -2.3 49 +6 +6 1000.7 985.6 +11.1
18 18.05 З 2 20 км 8/1 600 м
[Sc Ac trans Ci sp]
+1.2 -1.8 80 -2 -2 1001.0 985.5
21 18.05 З 1 20 км 9/4 300 м
[Cb calv Ac trans Ci sp]
+2.1 -1.7 76 +1 +1 1000.3 984.9
00 19.05 З 1 50 км 8/3 300 м
[Cb calv Ac trans Ci sp]
+1.1 -1.5 83 -1 -1 1000.3 984.8
03 19.05 СЗ 1 50 км 10/1 600 м
[Sc Ac trans Cs]
+4.1 -1.5 67 +3 +5 1000.2 984.9 +0.6
06 19.05 С 3 50 км в посл. час крупа 9/8 300 м
[Cb calv Ci fib]
+7.2 -1.6 54 +5 +7 1000.2 985.0
09 19.05 З 2 50 км 9/8 300 м
[Cb calv Ac trans Ci fib]
+7.1 -1.7 54 +5 +7 1001.3 986.1
12 19.05 С 5 50 км {ливн. осадки} 8/6 300 м
[Cb calv Ci fib]
+8.8 -3.7 41 +6 +7 1002.2 987.1
15 19.05 СЗ 2 50 км 6/3 300 м
[Cb calv Ac trans Ci fib]
+9.1 -5.6 35 +8 +9 1002.7 987.6 +10.2
18 19.05 З 2 20 км 9/5 300 м
[Cb calv Ac und]
+5.1 -1.1 64 +3 +3 1003.5 988.2
21 19.05 З 2 20 км 6/3 600 м
[Sc Ac trans Ci fib]
+3.4 -2.1 67 +1 +1 1003.4 988.0
00 20.05 З 2 50 км 10/1 600 м
[Sc Ac trans Cs]
+1.6 -2.1 76 -2 -2 1004.2 988.7
03 20.05 СЗ 2 50 км в посл. час ливневой дождь 10/8 300 м
[Cb calv As trans]
+3.1 +1.7 91 0 0 1004.9 989.5 +1.5 0.3
06 20.05 С 4 50 км {ливн. осадки} 9/8 300 м
[Cb calv Ac trans]
+6.9 -2.1 53 +4 +5 1004.7 989.5
09 20.05 СЗ 3 50 км 9/8 300 м
[Cb calv Ac trans Ci fib]
+8.5 -2.8 45 +7 +8 1004.8 989.7
12 20.05 С 5
{10}
10 км слаб. ливневой дождь 9/8 300 м
[Cb calv Ac trans Ci sp]
+4.8 +1.9 81 0 +1 1007.0 991.6
15 20.05 СЗ 2 10 км слаб. ливневой дождь 10/8 300 м
[Cb calv Ac trans Cs]
+4.3 +2.0 85 +2 +2 1007.5 992.1 +9.3 1
18 20.05 СЗ 1 10 км слаб. ливневой дождь 10/6 300 м
[Cb calv Ac trans Cs]
+3.9 +2.4 90 +2 +2 1007.6 992.2
21 20.05 З 2 20 км {ливн. осадки} 10/5 300 м
[Cb calv Ac As]
+2.1 +1.0 92 -1 -1 1007.6 992.1
00 21.05 СЗ 2 10 км слаб. ливневой дождь 10/8 300 м
[Cb calv As op]
+1.5 +0.4 92 -2 -2 1007.8 992.2
03 21.05 СЗ 2 10 км слаб. ливневой дождь 10/8 300 м
[Cb calv Ac As]
+2.3 +0.7 89 -1 -1 1008.4 992.9 +1.5 3
06 21.05 СЗ 4 10 км слаб. ливневой дождь 10/6 300 м
[Cb calv Ac As]
+3.3 +0.6 82 -1 -0 1009.7 994.2
09 21.05 С 3 50 км {ливн. осадки} 10/8 300 м
[Cb calv Ac As]
+4.9 -0.3 69 +2 +2 1011.2 995.7
12 21.05 СЗ 3 20 км слаб. ливневой дождь 10/8 300 м
[Cb calv As op]
+4.5 -0.5 70 +1 +1 1012.7 997.2
15 21.05 СЗ 1 50 км {ливн. осадки} 10/8 300 м
[Cb calv As op]
+5.0 -0.6 67 +4 +4 1013.0 997.5 +5.3 0.8
18 21.05 З 1 20 км {ливн. осадки} 10/8 300 м
[Cb calv As op]
+4.1 +0.3 76 +3 +3 1013.0 997.5
21 21.05 З 2 20 км 10/8 300 м
[Cb calv As op]
+3.7 +0.1 77 +1 +1 1012.4 996.9
00 22.05 З 1 50 км 6/3 600 м
[Sc Ac trans Ci fib]
+1.0 -0.6 89 -1 -1 1012.7 997.0
03 22.05 З 2 50 км 4/1 600 м
[Sc Ac trans Ci fib]
+6.2 -0.5 62 +4 +7 1012.9 997.5 +0.9
06 22.05 З 2 50 км 3/3 600 м
[Cu Sc Ac lent]
+10.9 -1.1 43 +10 +18 1012.0 996.8
09 22.05 СВ 2 50 км 8/6 300 м
[Cb calv Ac und]
+12.5 -3.5 33 +12 +16 1010.9 995.9
12 22.05 З 2 50 км 9/6 300 м
[Cb calv Ac und]
+13.3 -4.9 28 +13 +14 1010.3 995.3
15 22.05 З 1 50 км 9/6 300 м
[Cb calv Ac und]
+12.6 -3.9 31 +13 +13 1010.0 995.0 +13.9
18 22.05 Ю 1 20 км 8/3 300 м
[Cb calv Ac trans Ci fib]
+4.9 +1.3 77 +4 +4 1010.3 994.9
21 22.05 штиль 0 20 км 4/1 600 м
[Sc Ac trans]
+1.2 -0.2 90 0 0 1009.6 994.0
00 23.05 штиль 0 50 км местами туман поземный 6/0
[Ac trans Ci sp]
+0.1 -0.8 94 -1 -1 1008.9 993.3
03 23.05 ЮЗ 1 50 км 3/0
[Ci sp]
+10.9 -1.8 41 +11 +16 1007.0 992.0 -0.4
06 23.05 ЮЗ 4-10
{10}
50 км 3/0
[Ci sp]
+17.1 -4.9 22 +17 +24 1004.1 989.4
09 23.05 ЮЗ 4
{12}
50 км 10/3 600 м
[Cu hum Cs]
+18.9 -3.6 21 +19 +24 1001.1 986.6
12 23.05 ЮЗ 5-11
{12}
50 км 10/4 300 м
[Cb calv Cs]
+19.0 -1.0 26 +19 +20 998.7 984.2
15 23.05 ЮЗ 5-11
{14}
50 км 9/3 600 м
[Sc Ci]
+17.2 +0.6 33 +17 +17 996.0 981.4 +19.7
18 23.05 ЮЗ 2
{11}
20 км 9/8 300 м
[Cb calv Ac trans]
+13.8 +4.4 53 +13 +13 994.9 980.2
21 23.05 С 5
{11}
4000 м ливневой дождь 10/10 300 м
[Cb calv]
+5.7 +4.2 90 +1 +1 996.6 981.4
00 24.05 СЗ 2 50 км в посл. час ливневой дождь 10/8 300 м
[Cb calv As trans]
+3.5 +2.0 90 +1 +1 998.4 983.0
03 24.05 СЗ 2 50 км 9/9 300 м
[Cb calv]
+4.1 +0.7 78 +1 +2 1000.2 984.9 +3.3 5
06 24.05 СЗ 4 50 км 8/8 300 м
[Cb calv]
+6.1 -0.5 63 +3 +4 1001.6 986.4
09 24.05 С 4 50 км 9/8 300 м
[Cb calv Ac trans]
+7.7 -6.2 37 +5 +6 1002.9 987.7
12 24.05 СЗ 4 50 км 9/8 300 м
[Cb calv Ac trans]
+7.5 -8.0 32 +5 +6 1004.6 989.4
15 24.05 СЗ 2 50 км 8/5 300 м
[Cb calv Ac trans]
+6.7 -6.4 39 +5 +5 1005.9 990.6 +8.3
18 24.05 З 2
{10}
20 км 4/4 600 м
[Sc]
+2.2 -3.5 66 -1 -1 1008.2 992.7

 

Местоположение метеостанции Верхотурье (Свердловская область, Россия): широта 58.87 долгота 60.78 высота над уровнем моря 126 м.

В архиве по умолчанию представлена погода в Верхотурье за последнюю неделю. Архивные данные за месяц целиком и за предыдущие месяцы, начиная с января 2011 года, Вы можете получить, выбрав интересующий диапазон дат из раскрывающегося списка и нажав кнопку "Ввод!".


*Определитесь, кто Вы:
робот инопланетянин человек

Внимание! Время в таблицах - всемирное. Для получения местного времени необходимо прибавить поправку, которая равна 5 ч.

Смотрите также архив погоды в соседних городах и на ближайших метеорологических станциях:

Погода в Качканаре (Свердловская область, Россия) (75 км)
Погода в Серове (Свердловская область, Россия) (82 км)
Погода в Кушве (Свердловская область, Россия) (85 км)
Погода в Карпинске (Свердловская область, Россия) (107 км)
Погода в Гарях (Свердловская область, Россия) (108 км)
Погода в Кытлыме (Свердловская область, Россия) (113 км)
Погода в Нижнем Тагиле (Свердловская область, Россия) (118 км)
Погода в Бисере (Пермский край, Россия) (118 км)
Погода в Алапаевске (Свердловская область, Россия) (123 км)
Погода в Висиме (Свердловская область, Россия) (152 км)

Пояснения к столбцам:

Ветер - указаны скорость ветра в м/с - средняя за 10 мин, порывы в срок и между сроками (в фигурных скобках) и направление, откуда дует ветер: С - северный, СВ - северо-восточный, В - восточный, ЮВ - юго-восточный, Ю - южный, ЮЗ - юго-западный, З - западный, СЗ - северо-западный.
Видимость - горизонтальная дальность видимости в метрах или километрах. При видимости от 1 до 10 км при отсутствии осадков обычно наблюдается дымка, при ухудшении видимости до 1 км и менее - туман. В сухую погоду видимость может ухудшаться дымом, пылью или мглою.
Явления - указаны атмосферные явления, наблюдавшиеся в срок или в последний час перед сроком; фигурными скобками обозначены явления, наблюдавшиеся между сроками (за 1-3 часа до срока); квадратными скобками обозначены град или гололедные отложения с указанием их диаметра в мм.
Облачность - указаны через наклонную черту общая и нижняя облачность в баллах и высота нижней границы облаков в метрах; квадратными скобками обозначены формы облаков: Ci - перистые, Cs - перисто-слоистые, Cc - перисто-кучевые, Ac - высококучевые, As - высокослоистые, Sc - слоисто-кучевые, Ns - слоисто-дождевые, Cu - кучевые, Cb - кучево-дождевые. Подробнее классификацию облаков см. в Атласе облаков (PDF).
T - Температура воздуха - температура, измеренная на высоте 2 м над землей.
Td - Температура точки росы - температура, при понижении до которой содержащийся в воздухе водяной пар достигнет насыщения.
f - Относительная влажность воздуха - влажноcть воздуха, измеренная на высоте 2 м над землей.
Te - Эффективная температура - температура, которую ощущает одетый по сезону человек в тени. Характеристика душности погоды. При расчете учитывается влияние влажности воздуха и скорости ветра на теплоощущения человека.
Tes - Эффективная температура на солнце - температура, которую ощущает человек, с поправкой на солнечный нагрев. Характеристика знойности погоды. Зависит от высоты солнца над горизонтом, облачности и скорости ветра. Ночью, в пасмурную погоду, а также при ветре 12 м/с и более поправка равна нулю.
P - Атмосферное давление - приведенное к уровню моря атмосферное давление.
Po - Атмосферное давление - измеренное на уровне метеостанции атмосферное давление.
Tmin - Минимальная температура - минимум температуры воздуха на высоте 2 м над землей.
Tmax - Максимальная температура - максимум температуры воздуха на высоте 2 м над землей.
R - Количество осадков - Количество выпавших осадков за период времени, мм. При наведении курсора мыши на число - период времени, за который выпало указанное количество осадков.
R24 - Количество осадков - Количество выпавших осадков за 24 часа, мм.
S - Снежный покров - Высота снежного покрова, см. При наведении курсора мыши на число - состояние снежного покрова и степень покрытия местности в баллах.